TimeCST,TemperatureF,Dew PointF,Humidity,Sea Level PressureIn,VisibilityMPH,Wind Direction,Wind SpeedMPH,Gust SpeedMPH,PrecipitationIn,Events,Conditions,WindDirDegrees,DateUTC
12:15 AM,45.0,44.2,97,30.05,5.0,Calm,Calm,-,0.01,Rain,Rain,0,2013-12-09 06:15:00
12:35 AM,44.2,44.2,100,30.06,3.0,WNW,3.5,-,0.07,Rain,Heavy Rain,300,2013-12-09 06:35:00
12:55 AM,44.2,44.2,100,30.04,7.0,Calm,Calm,-,0.12,Rain,Light Rain,0,2013-12-09 06:55:00
1:15 AM,44.6,44.6,100,30.05,7.0,Calm,Calm,-,N/A,Rain,Rain,0,2013-12-09 07:15:00
1:35 AM,44.6,44.6,100,30.05,10.0,Calm,Calm,-,0.01,,Overcast,0,2013-12-09 07:35:00
1:55 AM,44.6,44.6,100,30.05,4.0,Calm,Calm,-,0.01,Rain,Heavy Rain,0,2013-12-09 07:55:00
2:15 AM,44.6,44.6,100,30.06,3.0,Calm,Calm,-,0.04,Rain,Light Rain,0,2013-12-09 08:15:00
2:35 AM,44.6,44.6,100,30.05,10.0,Calm,Calm,-,0.04,Rain,Light Rain,0,2013-12-09 08:35:00
2:55 AM,44.8,44.8,100,30.05,10.0,Calm,Calm,-,0.04,,Overcast,0,2013-12-09 08:55:00
3:15 AM,45.0,45.0,100,30.05,10.0,Calm,Calm,-,N/A,,Overcast,0,2013-12-09 09:15:00
3:35 AM,45.1,45.1,100,30.05,10.0,Calm,Calm,-,0.01,,Overcast,0,2013-12-09 09:35:00
3:55 AM,45.0,45.0,100,30.05,3.0,Calm,Calm,-,0.01,,Drizzle,0,2013-12-09 09:55:00
4:35 AM,45.1,45.1,100,30.06,7.0,Calm,Calm,-,N/A,Rain,Light Rain,0,2013-12-09 10:35:00
4:55 AM,45.1,45.1,100,30.07,5.0,Calm,Calm,-,N/A,,Overcast,0,2013-12-09 10:55:00
5:15 AM,45.1,45.1,100,30.06,3.0,Calm,Calm,-,N/A,,Overcast,0,2013-12-09 11:15:00
5:35 AM,45.1,45.1,100,30.07,2.5,Calm,Calm,-,0.01,,Heavy Drizzle,0,2013-12-09 11:35:00
5:55 AM,45.1,45.1,100,30.09,3.0,Calm,Calm,-,0.02,,Drizzle,0,2013-12-09 11:55:00
6:15 AM,45.1,45.1,100,30.09,3.0,Calm,Calm,-,0.01,,Heavy Drizzle,0,2013-12-09 12:15:00
6:35 AM,45.3,45.3,100,30.11,2.5,Calm,Calm,-,0.02,Rain,Rain,0,2013-12-09 12:35:00
6:55 AM,45.1,45.1,100,30.11,7.0,Calm,Calm,-,0.04,Rain,Rain,0,2013-12-09 12:55:00
7:15 AM,45.5,45.5,100,30.11,10.0,Calm,Calm,-,N/A,,Overcast,0,2013-12-09 13:15:00
7:35 AM,45.5,44.8,97,30.12,10.0,Calm,Calm,-,N/A,,Overcast,0,2013-12-09 13:35:00
7:55 AM,45.5,44.1,95,30.13,10.0,NNE,6.9,-,N/A,,Overcast,30,2013-12-09 13:55:00
8:15 AM,45.1,43.5,94,30.14,10.0,NNE,4.6,-,N/A,,Overcast,20,2013-12-09 14:15:00
8:35 AM,45.1,43.2,93,30.13,10.0,NE,3.5,-,N/A,,Overcast,40,2013-12-09 14:35:00
8:55 AM,45.5,43.9,94,30.14,10.0,Calm,Calm,-,N/A,,Overcast,0,2013-12-09 14:55:00
9:15 AM,46.0,43.9,92,30.14,10.0,Calm,Calm,-,N/A,,Overcast,0,2013-12-09 15:15:00
9:35 AM,46.2,43.7,91,30.14,10.0,Calm,Calm,-,N/A,,Overcast,0,2013-12-09 15:35:00
9:55 AM,47.1,44.2,90,30.14,10.0,Calm,Calm,-,N/A,,Overcast,0,2013-12-09 15:55:00
10:15 AM,46.9,44.4,91,30.15,10.0,NE,4.6,-,N/A,,Overcast,50,2013-12-09 16:15:00
10:35 AM,46.4,44.1,92,30.15,10.0,NE,5.8,-,N/A,,Overcast,50,2013-12-09 16:35:00
10:55 AM,45.7,43.9,93,30.15,10.0,NE,3.5,-,N/A,,Overcast,40,2013-12-09 16:55:00
11:15 AM,45.7,43.0,90,30.15,10.0,Calm,Calm,-,N/A,,Overcast,0,2013-12-09 17:15:00
11:35 AM,45.5,42.6,90,30.15,10.0,NE,6.9,-,N/A,,Overcast,40,2013-12-09 17:35:00
11:55 AM,45.7,42.4,88,30.14,10.0,Calm,Calm,-,N/A,,Overcast,0,2013-12-09 17:55:00
12:15 PM,46.6,43.3,88,30.14,10.0,ENE,3.5,-,N/A,,Overcast,60,2013-12-09 18:15:00
12:35 PM,45.9,41.9,86,30.13,10.0,East,5.8,-,N/A,,Overcast,90,2013-12-09 18:35:00
12:55 PM,46.0,42.1,86,30.12,10.0,East,4.6,-,N/A,,Overcast,90,2013-12-09 18:55:00
1:15 PM,46.0,42.1,86,30.11,10.0,Calm,Calm,-,N/A,,Overcast,0,2013-12-09 19:15:00
1:35 PM,46.2,42.3,86,30.11,10.0,Calm,Calm,-,N/A,,Mostly Cloudy,0,2013-12-09 19:35:00
1:55 PM,47.3,42.1,82,30.11,10.0,Calm,Calm,-,N/A,,Mostly Cloudy,0,2013-12-09 19:55:00
2:15 PM,48.6,43.0,81,30.12,10.0,NNE,9.2,-,N/A,,Mostly Cloudy,20,2013-12-09 20:15:00
2:35 PM,46.0,41.9,85,30.14,10.0,NNW,10.4,-,N/A,,Overcast,340,2013-12-09 20:35:00
2:55 PM,43.5,39.7,87,30.15,10.0,NNW,10.4,18.4,N/A,,Overcast,330,2013-12-09 20:55:00
3:15 PM,42.4,38.7,86,30.16,10.0,NW,6.9,-,N/A,,Overcast,310,2013-12-09 21:15:00
3:35 PM,41.9,38.3,87,30.17,10.0,NW,6.9,-,N/A,,Overcast,310,2013-12-09 21:35:00
3:55 PM,41.2,37.4,86,30.18,10.0,WNW,8.1,-,N/A,,Overcast,300,2013-12-09 21:55:00
4:15 PM,40.5,36.7,86,30.18,10.0,NW,4.6,-,N/A,,Overcast,310,2013-12-09 22:15:00
4:35 PM,40.1,36.0,85,30.18,10.0,North,4.6,-,N/A,,Overcast,350,2013-12-09 22:35:00
4:55 PM,39.4,36.3,89,30.18,10.0,North,4.6,-,N/A,,Overcast,360,2013-12-09 22:55:00
5:15 PM,39.2,35.6,87,30.19,10.0,North,5.8,-,N/A,,Overcast,10,2013-12-09 23:15:00
5:35 PM,38.7,35.1,87,30.20,10.0,North,4.6,-,N/A,,Overcast,10,2013-12-09 23:35:00
5:55 PM,38.7,35.1,87,30.20,10.0,North,4.6,-,N/A,,Overcast,10,2013-12-09 23:55:00
6:15 PM,38.3,34.3,86,30.19,10.0,North,4.6,-,N/A,,Overcast,10,2013-12-10 00:15:00
6:35 PM,38.1,33.8,84,30.18,10.0,NNE,4.6,-,N/A,,Overcast,20,2013-12-10 00:35:00
6:55 PM,37.8,33.8,86,30.18,10.0,NNW,4.6,-,N/A,,Overcast,340,2013-12-10 00:55:00
7:15 PM,37.4,33.4,86,30.18,10.0,NNE,6.9,-,N/A,,Overcast,30,2013-12-10 01:15:00
7:35 PM,37.4,33.3,85,30.17,10.0,NNE,4.6,-,N/A,,Overcast,30,2013-12-10 01:35:00
7:55 PM,37.4,33.3,85,30.17,10.0,NNE,4.6,-,N/A,,Overcast,20,2013-12-10 01:55:00
8:15 PM,37.0,33.4,87,30.17,10.0,NNE,4.6,-,N/A,,Overcast,20,2013-12-10 02:15:00
8:35 PM,36.9,32.9,86,30.15,10.0,NNE,4.6,-,N/A,,Overcast,20,2013-12-10 02:35:00
8:55 PM,36.5,32.9,87,30.13,10.0,North,4.6,-,N/A,,Overcast,10,2013-12-10 02:55:00
9:15 PM,36.5,33.1,87,30.13,10.0,NNE,3.5,-,N/A,,Overcast,30,2013-12-10 03:15:00
9:35 PM,36.5,32.9,87,30.12,10.0,Calm,Calm,-,N/A,,Overcast,0,2013-12-10 03:35:00
9:55 PM,36.5,33.1,87,30.12,10.0,Calm,Calm,-,N/A,,Overcast,0,2013-12-10 03:55:00
10:15 PM,36.5,32.9,87,30.11,10.0,Calm,Calm,-,N/A,,Overcast,0,2013-12-10 04:15:00
10:35 PM,36.5,32.7,86,30.07,10.0,NNE,3.5,-,N/A,,Overcast,30,2013-12-10 04:35:00
10:55 PM,36.5,32.5,86,30.07,10.0,Calm,Calm,-,N/A,,Overcast,0,2013-12-10 04:55:00
11:15 PM,36.5,32.5,86,30.07,10.0,Calm,Calm,-,N/A,,Overcast,0,2013-12-10 05:15:00
11:35 PM,36.9,32.9,86,30.11,10.0,Calm,Calm,-,N/A,,Overcast,0,2013-12-10 05:35:00
11:55 PM,36.9,34.2,90,30.10,7.0,NNE,4.6,-,0.01,Rain,Rain,30,2013-12-10 05:55:00